Location: Austin
(30.3000°N, 97.7500°W)
Time: 14:46:05
(UTC-06:00)

Cosmos 1515 Rocket - Pass Details

Date: 10 January 2026
Orbit: 600 x 622 km, 82.5° (Epoch: 20 January)

Event Time Altitude Azimuth Distance (km) Brightness Sun altitude
Rises 18:49:38 0° 181° (S) 2,861 7.2 -13.0°
Reaches altitude 10° 18:51:50 10° 180° (S) 1,964 6.4 -13.5°
Maximum altitude 18:56:10 77° 95° (E) 635 3.4 -14.4°
Drops below altitude 10° 19:00:34 10° 9° (N) 1,987 5.9 -15.3°
Enters shadow 19:02:38 - 8° (N) 2,826 6.7 -15.7°
